Location: Allisons_Woods
(35.8920°N, 81.8170°W)
Time: 06:51:10
(UTC-04:00)

Daily predictions for brighter satellites

Satellite Brightness Start Highest point End
(mag) Time Altitude Azimuth Time Altitude Azimuth Time Altitude Azimuth
ISS -3.5 21:03:34 10° SSW 21:06:40 43° SE 21:09:46 10° ENE
ATLAS 5 CENTAUR R/B 4.5 21:09:16 10° NNE 21:11:56 13° NE 21:14:42 10° ENE
Tsikada Rocket 4.0 21:06:12 10° S 21:12:24 70° E 21:18:32 10° NNE
YAOGAN 6 3.8 21:13:07 10° SE 21:16:14 26° ENE 21:19:23 10° NNE
USA 186 1.7 21:19:20 10° S 21:21:51 62° W 21:24:37 10° NNW
Tiangong 2 2.5 21:19:10 10° NW 21:22:09 33° NNE 21:25:07 10° E
Hubble Space Telescope 2.8 21:20:09 10° WSW 21:22:50 17° SSW 21:25:31 10° SSE
Meteor 2-10 Rocket 3.9 21:19:48 10° N 21:25:40 85° W 21:31:26 10° S
Meteor 2-3 Rocket 3.8 21:20:10 10° S 21:25:47 60° E 21:31:23 10° NNE
Cosmos 2034 Rocket 4.1 21:19:43 10° N 21:25:55 79° W 21:32:03 10° S
GPS 2-04 Rocket1 2.4 21:23:25 10° W 21:27:11 82° S 21:30:46 10° E
COSMOS 2487 3.3 21:25:32 10° NNW 21:28:59 50° WSW 21:32:24 10° S
Meteor 1-26 Rocket 4.3 21:24:12 10° N 21:29:49 65° E 21:35:31 10° SSE
OAO 2 Rocket 3.7 21:25:13 10° W 21:30:07 51° SSW 21:34:09 14° SE
Helios 1B rocket 2.5 21:29:14 10° NNE 21:33:17 56° E 21:37:17 10° S
Cosmos 1634 Rocket 4.4 21:29:02 10° N 21:35:03 46° E 21:40:42 12° SSE
H-2A R/B 4.0 21:32:44 10° E 21:35:32 14° ENE 21:38:19 10° NNE
Cosmos 2082 Rocket 3.5 21:31:09 10° NW 21:36:23 40° WSW 21:41:37 10° S
Cosmos 1937 Rocket 4.0 21:33:09 10° SSW 21:38:13 62° WNW 21:43:20 10° N
CZ-4B DEB 3.3 21:37:46 19° SE 21:39:23 35° ENE 21:42:06 10° N
Cosmos 2344 4.2 21:33:06 10° S 21:39:42 31° ESE 21:46:26 10° NE
SL-19 R/B 4.4 21:35:34 10° SSE 21:41:13 84° ENE 21:47:17 10° NNW
Lacrosse 4 Rocket 4.0 21:41:40 10° NE 21:41:58 10° NE 21:42:17 10° NE
Cosmos 1408 3.9 21:42:05 19° ESE 21:43:25 23° E 21:46:25 10° NE
Cosmos 1825 3.3 21:45:47 20° ESE 21:47:02 24° E 21:50:08 10° NE
Cosmos 1833 Rocket 4.2 21:42:34 10° NW 21:47:31 33° WSW 21:52:28 10° SSW
Meteor 1-29 2.9 21:44:47 10° NNE 21:48:16 67° ESE 21:51:43 10° S
TIMED 4.4 21:45:40 10° S 21:49:58 66° ESE 21:54:19 10° NNE
Resurs 01 Rocket 3.7 21:49:15 10° SSW 21:52:55 25° W 21:56:36 10° NW
Shenzhou-11 Module 2.3 21:50:37 10° WNW 21:53:40 61° NNE 21:55:05 27° E
Helios 1A 3.1 21:55:51 13° S 21:59:33 72° W 22:03:45 10° NNW
Molniya-1 3.2 21:58:12 10° SW 22:00:04 48° WNW 22:01:01 19° NNE
Cosmos 1892 4.0 21:57:50 10° SSW 22:01:30 41° W 22:05:10 10° N
MetOp-A 4.4 22:01:47 23° SE 22:04:57 52° ENE 22:10:08 10° N
COSMOS 2455 3.1 21:58:58 10° SSW 22:04:57 74° WNW 22:10:59 10° NNE
ERS-1 Rocket 3.0 22:03:26 23° SSE 22:06:35 63° ENE 22:11:33 10° N
Cosmos 2279 Rocket 4.2 22:04:04 10° N 22:10:09 51° E 22:13:33 25° SE
Cosmos 1943 Rocket 2.2 22:04:48 10° S 22:10:16 58° ESE 22:15:44 10° NNE
Cosmos 2263 4.1 22:07:47 10° SSW 22:13:33 80° ESE 22:19:18 10° NNE
Cosmos 2142 Rocket 4.4 22:09:07 10° N 22:15:16 87° E 22:19:54 19° S
NOAA 11 4.1 22:13:36 23° SSE 22:17:05 81° ENE 22:22:35 10° N
USA 215 3.5 22:19:36 25° ESE 22:23:31 61° NE 22:29:58 10° NW
Milstar 3 3.7 22:12:33 10° WSW 22:23:40 44° S 22:27:31 27° ESE
Cosmos 1340 3.2 22:22:16 10° N 22:25:52 40° ENE 22:25:58 40° E
Okean 1-7 3.0 22:22:59 10° N 22:27:24 83° W 22:29:17 34° S
Lacrosse 5 rocket 2.6 22:24:35 10° WSW 22:27:55 36° NW 22:31:19 10° NNE
Cosmos 2369 Rocket 3.0 22:22:36 10° SW 22:28:06 53° WNW 22:33:40 10° NNE
SPOT 1/Viking Rocket 4.0 22:31:52 37° ESE 22:33:18 46° ENE 22:38:15 10° N
SL-08 RB Rocket 3.8 22:35:00 47° SE 22:36:10 64° ENE 22:40:47 10° N
DNEPR-1 R/B 4.2 22:31:17 10° SW 22:36:43 68° WNW 22:41:19 10° NNE
Cosmos 1606 2.6 22:33:00 10° N 22:36:47 84° W 22:37:22 62° S
Cosmos 468 4.4 22:33:46 10° NNW 22:39:03 86° WSW 22:40:55 41° SSE
ISS -0.9 22:40:52 10° WNW 22:43:16 19° NNW 22:45:42 10° NNE
Cosmos 372 Rocket 4.2 22:40:36 11° SSW 22:45:32 70° WNW 22:50:39 10° NNE
Cosmos 1733 Rocket 3.0 22:45:52 59° E 22:45:52 59° E 22:50:07 10° NNE
OAO 3 Copernicus 4.2 22:41:27 10° WSW 22:46:25 64° SSE 22:47:06 57° SE
Meteor 1-10 Rocket 4.5 22:41:30 10° NNW 22:47:26 72° W 22:50:18 32° S
Cosmos 1269 Rocket 4.0 22:42:16 10° NNW 22:47:34 72° ENE 22:48:45 53° SE
Meteor 1-27 Rocket 3.7 22:42:02 10° N 22:47:46 66° E 22:49:13 48° SE
Terra 2.8 22:49:48 30° ENE 22:49:53 30° ENE 22:54:02 10° N
Cosmos 1125 Rocket 4.3 22:46:23 10° SW 22:51:28 50° WNW 22:56:33 10° N
CENTAUR R/B 3.0 22:45:50 10° SW 22:51:40 58° NW 22:58:18 10° NNE
Nimbus 7 Rocket 4.3 22:51:17 10° NNE 22:57:12 85° ESE 22:59:42 37° S
ATLAS 5 CENTAUR R/B 2.6 22:51:38 10° NNW 22:57:41 64° NE 22:59:28 46° ESE
Tiangong 2 2.9 22:56:02 10° WNW 22:57:47 28° W 22:57:47 28° W
SPOT 5 3.2 22:58:43 45° S 23:00:21 70° WSW 23:05:41 10° NNW
Meteor 2-20 4.4 23:03:29 54° SE 23:04:36 64° E 23:10:38 10° NNE
GPS 2-04 Rocket1 4.0 23:03:15 10° W 23:05:16 30° W 23:05:16 30° W
ARGOS 3.8 23:06:21 35° SSW 23:08:12 50° W 23:13:25 10° NNW
Cosmos 1782 4.5 23:05:34 10° NNW 23:08:59 28° W 23:09:54 25° WSW
Cosmos 2084 4.5 23:05:54 10° NW 23:09:06 33° WSW 23:09:06 33° WSW
Cosmos 1656 Rocket 3.4 23:10:03 62° S 23:10:59 84° ESE 23:16:31 10° NNE
H-2A R/B 2.3 23:13:15 54° SSW 23:14:20 68° WSW 23:19:42 10° NNW
CARTOSAT-1 4.1 23:19:18 51° NNE 23:19:18 51° NNE 23:22:46 10° N
Lacrosse 4 Rocket 1.8 23:16:49 10° NNW 23:20:44 67° NW 23:20:44 67° NW
Cosmos 1674 Rocket 4.0 23:21:22 10° N 23:24:54 58° NNW 23:24:54 58° NNW
Meteor 1-14 Rocket 4.5 23:26:51 57° E 23:26:51 57° E 23:32:16 10° NNE
Cosmos 1092 Rocket 3.9 23:27:20 63° SSW 23:28:24 87° W 23:34:35 10° N
ATLAS CENTAUR R/B 4.0 23:33:00 11° NE 23:33:00 11° NE 23:33:08 10° NE
Cosmos 494 Rocket 4.2 23:24:19 10° N 23:29:03 58° NE 23:29:03 58° NE
Nadezhda 4 Rocket 4.4 23:27:53 36° SW 23:30:19 57° W 23:36:24 10° N
SL-19 R/B 4.4 23:24:31 10° NNE 23:30:36 72° ESE 23:30:53 70° SE
H-2A R/B 3.3 23:37:08 34° NNE 23:37:08 34° NNE 23:39:40 10° N
Cosmos 1627 Rocket 4.4 23:35:54 70° ESE 23:36:02 70° E 23:42:19 10° NNE
Cosmos 2227 Rocket 4.1 23:35:24 10° NNE 23:38:57 17° NE 23:39:30 17° ENE
Cosmos 2219 3.6 23:38:15 10° NNW 23:43:36 52° NE 23:43:36 52° NE
CZ-4B R/B 4.4 23:42:54 10° NNE 23:46:05 38° NE 23:46:05 38° NE
